When you browse on this site, cookies collect data to enhance your experience and personalize the content and advertising you see.
Visit our Privacy Policy to learn more. By continuing to use the site, you agree to this use of cookies and data.
  • In Spain
  • List of Countries
  • For 7 days
  • Water Temperature
  • Weather Map
  • Weather Widgets
  • user-avatar
    Login

    Hourly Weather Rusino

    Today, 24 January, Friday

    Time Temperature Precipitation Wind Pressure Humidity
    00:00 -9°C° 0 mm 3 mps 745 mmHg 87%
    01:00 -9°C° 0 mm 3 mps 745 mmHg 88%
    02:00 -10°C° 0 mm 3 mps 745 mmHg 88%
    03:00 -10°C° 0 mm 3 mps 745 mmHg 88%
    04:00 -10°C° 0 mm 4 mps 744 mmHg 87%
    05:00 -10°C° 0 mm 4 mps 744 mmHg 87%
    06:00 -9°C° 0 mm 4 mps 744 mmHg 88%
    07:00 -10°C° 0 mm 5 mps 743 mmHg 89%
    08:00 -9°C° 0 mm 6 mps 743 mmHg 90%
    09:00 -8°C° 0 mm 6 mps 742 mmHg 90%
    10:00 -7°C° 0 mm 7 mps 742 mmHg 91%
    11:00 -6°C° 0 mm 7 mps 742 mmHg 91%
    12:00 -4°C° 0.2 mm 7 mps 741 mmHg 91%
    13:00 -4°C° 0.2 mm 7 mps 740 mmHg 90%
    14:00 -4°C° 0 mm 7 mps 740 mmHg 90%
    15:00 -4°C° 0.1 mm 7 mps 739 mmHg 93%
    16:00 -3°C° 0.1 mm 7 mps 739 mmHg 95%
    17:00 -3°C° 0.1 mm 7 mps 739 mmHg 97%
    18:00 -2°C° 0.2 mm 7 mps 738 mmHg 97%
    19:00 -2°C° 0.2 mm 7 mps 738 mmHg 97%
    20:00 -2°C° 0.2 mm 7 mps 737 mmHg 98%
    21:00 -2°C° 0.3 mm 7 mps 737 mmHg 98%
    22:00 -1°C° 0.3 mm 7 mps 737 mmHg 98%
    23:00 -1°C° 0.3 mm 7 mps 736 mmHg 97%

    Tomorrow, 25 January, Saturday

    Time Temperature Precipitation Wind Pressure Humidity
    00:00 -1°C° 0.1 mm 7 mps 736 mmHg 96%
    01:00 -1°C° 0.1 mm 7 mps 736 mmHg 95%
    02:00 -1°C° 0.1 mm 6 mps 736 mmHg 94%
    03:00 -1°C° 0.1 mm 6 mps 736 mmHg 95%
    04:00 -1°C° 0.1 mm 6 mps 736 mmHg 96%
    05:00 -1°C° 0.1 mm 6 mps 736 mmHg 97%
    06:00 -1°C° 0.1 mm 6 mps 736 mmHg 97%
    07:00 -2°C° 0.1 mm 6 mps 736 mmHg 97%
    08:00 -2°C° 0.1 mm 6 mps 736 mmHg 97%
    09:00 -2°C° 0 mm 6 mps 736 mmHg 96%
    10:00 -1°C° 0 mm 6 mps 736 mmHg 96%
    11:00 -1°C° 0 mm 7 mps 736 mmHg 95%
    12:00 -1°C° 0.2 mm 7 mps 735 mmHg 96%
    13:00 -1°C° 0.2 mm 7 mps 735 mmHg 97%
    14:00 -1°C° 0.2 mm 7 mps 734 mmHg 97%
    15:00 -1°C° 0.1 mm 7 mps 735 mmHg 94%
    16:00 -1°C° 0.1 mm 7 mps 735 mmHg 92%
    17:00 -2°C° 0.1 mm 7 mps 735 mmHg 89%
    18:00 -2°C° 0.1 mm 7 mps 735 mmHg 88%
    19:00 -3°C° 0.1 mm 7 mps 736 mmHg 88%
    20:00 -3°C° 0.1 mm 7 mps 736 mmHg 87%
    21:00 -4°C° 0 mm 7 mps 737 mmHg 84%
    22:00 -4°C° 0 mm 6 mps 737 mmHg 81%
    23:00 -5°C° 0 mm 6 mps 737 mmHg 78%

    Day after tomorrow, 26 January, Sunday

    Time Temperature Precipitation Wind Pressure Humidity
    00:00 -5°C° 0 mm 6 mps 738 mmHg 79%
    01:00 -5°C° 0 mm 6 mps 739 mmHg 81%
    02:00 -5°C° 0 mm 6 mps 740 mmHg 82%
    03:00 -6°C° 0 mm 6 mps 740 mmHg 82%
    04:00 -6°C° 0 mm 6 mps 741 mmHg 83%
    05:00 -6°C° 0 mm 6 mps 741 mmHg 83%
    06:00 -6°C° 0 mm 5 mps 742 mmHg 84%
    07:00 -6°C° 0 mm 5 mps 743 mmHg 85%
    08:00 -6°C° 0 mm 5 mps 744 mmHg 85%
    09:00 -6°C° 0 mm 5 mps 744 mmHg 85%
    10:00 -5°C° 0 mm 5 mps 745 mmHg 84%
    11:00 -5°C° 0 mm 5 mps 746 mmHg 84%
    12:00 -5°C° 0 mm 5 mps 746 mmHg 84%
    13:00 -3°C° 0 mm 4 mps 746 mmHg 84%
    14:00 -3°C° 0 mm 4 mps 746 mmHg 84%
    15:00 -4°C° 0 mm 4 mps 746 mmHg 84%
    16:00 -4°C° 0 mm 4 mps 746 mmHg 84%
    17:00 -5°C° 0 mm 5 mps 745 mmHg 84%
    18:00 -5°C° 0 mm 5 mps 745 mmHg 84%
    19:00 -5°C° 0 mm 6 mps 745 mmHg 83%
    20:00 -4°C° 0 mm 6 mps 745 mmHg 82%
    21:00 -4°C° 0 mm 6 mps 745 mmHg 85%
    22:00 -4°C° 0 mm 6 mps 745 mmHg 87%
    23:00 -3°C° 0 mm 6 mps 744 mmHg 90%

    27 January, Monday

    Time Temperature Precipitation Wind Pressure Humidity
    00:00 -3°C° 0 mm 7 mps 744 mmHg 90%
    01:00 -3°C° 0 mm 7 mps 744 mmHg 89%
    02:00 -3°C° 0 mm 7 mps 744 mmHg 89%
    03:00 -3°C° 0 mm 6 mps 744 mmHg 90%
    04:00 -3°C° 0 mm 6 mps 744 mmHg 90%
    05:00 -3°C° 0 mm 6 mps 744 mmHg 91%
    06:00 -3°C° 0 mm 6 mps 744 mmHg 91%
    07:00 -2°C° 0 mm 5 mps 744 mmHg 92%
    08:00 -2°C° 0 mm 5 mps 744 mmHg 92%
    09:00 -2°C° 0 mm 5 mps 745 mmHg 93%
    10:00 -2°C° 0 mm 5 mps 745 mmHg 94%
    11:00 -1°C° 0 mm 4 mps 745 mmHg 95%
    12:00 -1°C° 0.1 mm 4 mps 745 mmHg 96%
    13:00 -1°C° 0.1 mm 4 mps 745 mmHg 97%
    14:00 0°C° 0.1 mm 3 mps 745 mmHg 98%
    15:00 0°C° 0.1 mm 3 mps 745 mmHg 98%
    16:00 0°C° 0.1 mm 3 mps 745 mmHg 98%
    17:00 -1°C° 0.1 mm 3 mps 745 mmHg 98%
    18:00 0°C° 0.1 mm 3 mps 745 mmHg 98%
    19:00 0°C° 0.1 mm 3 mps 745 mmHg 98%
    20:00 +1°C° 0.1 mm 2 mps 745 mmHg 98%
    21:00 0°C° 0 mm 3 mps 745 mmHg 98%
    22:00 0°C° 0 mm 3 mps 745 mmHg 98%
    23:00 0°C° 0 mm 3 mps 745 mmHg 98%

    28 January, Tuesday

    Time Temperature Precipitation Wind Pressure Humidity
    00:00 0°C° 0 mm 3 mps 744 mmHg 98%
    01:00 -1°C° 0 mm 3 mps 744 mmHg 97%
    02:00 -1°C° 0 mm 3 mps 744 mmHg 97%
    03:00 -1°C° 0.2 mm 3 mps 743 mmHg 97%
    04:00 -2°C° 0.2 mm 4 mps 743 mmHg 97%
    05:00 -2°C° 0.2 mm 4 mps 743 mmHg 97%
    06:00 -2°C° 0.1 mm 4 mps 743 mmHg 97%
    07:00 -2°C° 0.1 mm 4 mps 743 mmHg 98%
    08:00 -1°C° 0.1 mm 4 mps 742 mmHg 98%
    09:00 -1°C° 0.1 mm 4 mps 742 mmHg 98%
    10:00 0°C° 0.1 mm 3 mps 742 mmHg 99%
    11:00 0°C° 0.1 mm 3 mps 742 mmHg 99%
    12:00 0°C° 0 mm 3 mps 742 mmHg 99%
    13:00 0°C° 0 mm 3 mps 742 mmHg 99%
    14:00 0°C° 0 mm 3 mps 741 mmHg 99%
    15:00 0°C° 0.1 mm 3 mps 741 mmHg 99%
    16:00 0°C° 0.1 mm 3 mps 741 mmHg 98%
    17:00 0°C° 0.1 mm 3 mps 741 mmHg 98%
    18:00 0°C° 0.1 mm 3 mps 741 mmHg 98%
    19:00 0°C° 0.1 mm 3 mps 742 mmHg 98%
    20:00 0°C° 0.1 mm 3 mps 742 mmHg 98%
    21:00 0°C° 0 mm 3 mps 742 mmHg 98%
    22:00 0°C° 0 mm 3 mps 742 mmHg 98%
    23:00 0°C° 0 mm 3 mps 742 mmHg 98%

    29 January, Wednesday

    Time Temperature Precipitation Wind Pressure Humidity
    00:00 0°C° 0 mm 3 mps 741 mmHg 97%
    01:00 0°C° 0 mm 3 mps 741 mmHg 97%
    02:00 0°C° 0 mm 3 mps 741 mmHg 97%
    03:00 0°C° 0 mm 3 mps 741 mmHg 97%
    04:00 0°C° 0 mm 3 mps 741 mmHg 97%
    05:00 0°C° 0 mm 3 mps 740 mmHg 96%
    06:00 0°C° 0 mm 3 mps 740 mmHg 96%
    07:00 0°C° 0 mm 3 mps 740 mmHg 96%
    08:00 -1°C° 0 mm 4 mps 740 mmHg 96%
    09:00 -1°C° 0 mm 4 mps 740 mmHg 97%
    10:00 -1°C° 0 mm 4 mps 739 mmHg 97%
    11:00 -1°C° 0 mm 5 mps 739 mmHg 98%
    12:00 -1°C° 0 mm 5 mps 738 mmHg 98%
    13:00 0°C° 0 mm 5 mps 738 mmHg 98%
    14:00 0°C° 0 mm 5 mps 737 mmHg 99%
    15:00 -1°C° 0 mm 6 mps 737 mmHg 98%
    16:00 -1°C° 0 mm 6 mps 736 mmHg 97%
    17:00 -1°C° 0 mm 6 mps 736 mmHg 96%
    18:00 -1°C° 0.3 mm 6 mps 735 mmHg 96%
    19:00 -1°C° 0.3 mm 6 mps 735 mmHg 97%
    20:00 -1°C° 0.3 mm 6 mps 734 mmHg 97%
    21:00 -1°C° 0.7 mm 6 mps 734 mmHg 97%
    22:00 0°C° 0.7 mm 5 mps 734 mmHg 97%
    23:00 0°C° 0.7 mm 5 mps 733 mmHg 97%
    Show more